sat.trackr.live / text

‹ back to catalog

SJ-9B

NORAD 38861 · 2012-056B

PAYLOAD ACTIVE UNKNOWN

§ Identity

Operator
Country
PRC
Launch date
2012-10-14
Launch site
TAISC
Launch vehicle
Mass (kg)
RCS (m²)
1.00

External: N2YO · Heavens-Above · Gunter

§ Orbital elements

Epoch: 2026-09-15T16:23:30.668640Z

Period
96.54 min
Inclination
97.6088°
Eccentricity
0.0013516
Mean motion
14.91600555 rev/d
Perigee alt
583.5 km
Apogee alt
602.4 km
Semi-major
6,971.1 km
B*
1.5023e-4
RAAN
239.5559°
Arg perigee
274.7814°
Mean anomaly
85.1862°
Rev number
75,321

§ Raw data

SJ-9B1 38861U 12056B   26258.68299385  .00001455  00000+0  15023-3 0  99912 38861  97.6088 239.5559 0013516 274.7814  85.1862 14.91600555753217

JSON: /api/v1/satellites/38861 · /tle

For live sub-satellite position, see the globe view (requires WebGL).

§ Visibility from observer

Set your observer location to see the next 7 days of passes ≥ 10°. The values pass through the URL so the page stays shareable.

No JS? Fill the form by hand. The geolocation button needs JavaScript.

§ Radio — SatNOGS DB

ModeDescriptionDownlinkUplink
FM S-band telemetry 2.255 GHz

1 transmitter · refreshed weekly from db.satnogs.org